GFSGL_250_spd_009.txt.gz
Wind_Speed
45 46 49 50 53 55 55 56 57 54 50 59 65 65 66 70 64 72 76 80 79 68 56 72 80 77 51 38 38 42 51 60 68 74 74 74 72 69 72 71 76 73 67
49 53 53 53 53 55 56 53 57 60 60 65 66 69 72 68 70 78 80 80 78 71 61 74 85 89 85 62 54 53 49 58 67 73 80 77 76 75 72 74 73 77 76
51 53 55 56 57 58 60 63 61 63 62 67 70 70 71 69 76 82 84 83 77 71 65 82 91 96 90 88 64 57 53 52 63 68 77 77 78 76 75 76 76 75 78
56 56 57 57 59 63 64 64 65 65 68 69 68 71 71 73 79 81 78 69 71 67 65 90 97 102 95 81 71 65 55 48 56 58 67 76 78 77 76 75 79 79 77
58 57 61 60 52 57 59 63 66 67 74 71 70 69 72 75 79 78 71 68 66 64 81 93 102 107 108 93 83 73 55 46 48 57 66 71 74 71 72 74 79 80 81
59 59 60 56 52 66 68 73 72 79 73 68 65 67 73 75 79 73 68 65 62 73 88 101 107 109 113 107 85 73 56 45 48 52 61 66 71 71 72 70 75 75 82
64 65 59 69 49 58 70 79 80 79 74 67 74 76 74 77 67 67 62 54 62 76 98 104 112 112 115 115 89 77 61 50 48 53 56 65 72 75 71 72 75 76 78
69 66 63 39 62 71 79 80 78 72 73 72 78 74 74 62 55 59 56 62 74 85 97 108 112 116 118 103 93 83 63 52 47 49 52 57 61 68 76 77 81 80 85
71 64 58 64 70 75 73 71 70 70 70 76 71 66 53 47 58 46 54 69 84 94 104 110 114 120 122 99 95 77 62 52 44 43 46 48 53 56 62 65 77 77 84
66 59 67 64 66 66 70 63 62 63 66 65 55 50 52 58 62 61 63 90 99 106 111 115 119 119 114 104 88 73 61 54 46 42 42 42 44 46 47 51 63 70 75
64 66 56 55 56 54 56 58 58 59 53 52 54 56 57 66 65 65 81 96 104 116 117 123 123 121 112 99 84 67 56 51 44 40 36 35 34 37 40 43 52 63 68
60 54 54 51 45 59 65 60 55 43 45 49 53 65 71 75 75 82 93 104 113 115 118 121 118 104 105 94 77 62 51 46 38 36 33 30 30 33 36 38 45 56 61
60 47 40 43 58 61 60 60 64 56 68 83 71 73 83 97 94 97 110 109 109 114 123 113 95 110 103 84 69 59 45 38 33 31 29 27 27 28 27 32 40 50 56
38 47 48 52 57 65 73 73 67 58 62 78 83 85 96 96 99 107 111 112 113 115 104 102 111 107 91 73 63 50 40 31 29 28 26 25 24 24 25 26 32 40 52
55 56 57 61 65 74 73 64 69 74 78 76 79 91 100 101 107 110 110 114 117 108 98 106 109 97 78 65 50 43 34 27 29 28 25 24 21 21 22 24 31 35 44
74 69 67 69 76 79 82 87 93 97 97 90 92 91 91 94 98 107 109 110 107 100 103 106 92 78 67 50 43 37 30 27 30 30 27 25 26 23 25 21 27 30 38
76 76 83 84 80 78 89 101 103 94 92 92 91 94 90 82 89 97 95 98 100 102 104 95 78 66 52 43 36 33 29 28 31 30 29 26 26 21 16 22 21 27 37
81 79 77 83 85 91 91 93 95 91 89 92 88 79 81 82 88 90 92 94 97 99 92 74 64 52 45 37 34 30 28 30 34 33 32 27 22 23 22 17 21 31 42
93 89 92 94 92 92 99 91 92 90 81 87 86 88 90 91 91 92 94 94 92 84 69 60 52 45 41 34 33 31 29 33 39 38 35 31 27 23 23 24 21 34 49
92 92 95 99 102 91 80 81 85 88 90 92 95 98 101 100 98 94 89 86 78 68 60 53 48 43 39 34 33 33 31 34 44 41 40 37 33 27 30 27 31 29 52
95 99 91 86 81 83 85 87 90 94 98 100 100 100 100 97 92 89 86 77 67 62 57 50 45 42 39 35 33 35 33 36 49 46 44 41 37 35 34 33 39 39 67
85 78 81 85 88 90 94 97 97 95 95 95 95 96 93 87 85 81 73 66 61 55 49 46 43 40 36 33 32 35 36 38 49 53 49 47 43 39 36 39 43 41 79
88 90 92 93 96 98 92 83 83 85 87 86 84 81 75 72 68 64 63 60 54 49 43 40 38 35 35 32 31 34 37 38 46 59 56 53 49 45 40 41 44 49 75
93 96 99 100 84 73 72 77 79 73 71 70 69 68 67 64 60 54 52 52 48 42 38 33 30 29 29 29 29 31 32 36 42 57 63 61 55 52 49 45 47 53 58
99 93 76 72 68 68 73 71 68 66 66 65 64 62 59 55 51 46 42 42 38 34 32 29 25 25 25 24 24 25 29 35 37 45 65 67 64 58 55 52 52 54 56
71 71 66 65 65 65 64 65 64 60 57 55 54 51 47 43 42 39 35 35 32 29 27 25 25 25 25 24 24 24 25 27 32 39 49 68 72 67 61 57 56 61 61

GFSGL_250_spd_015.txt.gz
Wind_Speed
45 46 47 48 49 50 52 51 54 57 53 49 52 49 45 47 53 63 68 62 67 67 71 72 74 67 60 55 50 45 45 51 52 63 75 84 72 61 43 48 57 72 79
44 47 49 51 52 53 55 56 55 50 48 55 52 52 43 64 66 56 63 66 70 74 78 77 69 66 56 46 49 45 56 47 60 78 88 84 89 62 46 52 47 53 70
49 51 53 55 55 55 57 57 48 48 46 60 54 55 61 65 61 66 65 70 77 78 81 72 63 62 59 51 53 53 53 54 68 79 84 91 90 68 48 55 60 53 56
54 55 56 56 53 50 51 53 41 44 49 56 59 57 62 67 70 67 72 78 84 85 74 71 70 64 63 54 52 54 59 63 77 83 93 88 88 76 59 49 55 55 54
59 59 57 54 47 47 46 46 41 37 36 52 66 62 65 72 82 86 84 81 91 88 81 84 76 65 67 59 54 59 68 71 85 91 98 90 85 72 59 47 48 54 52
63 61 54 51 52 52 51 48 43 40 38 55 64 68 77 75 77 82 89 91 87 87 77 73 68 71 74 66 69 73 82 85 92 97 94 80 71 65 55 45 41 49 50
64 57 53 55 58 56 53 47 43 48 48 49 62 74 79 84 86 88 89 92 91 88 86 78 70 72 67 70 76 82 89 93 93 94 95 73 74 64 52 42 41 44 53
64 58 56 57 60 59 58 52 49 53 54 53 66 75 79 82 86 89 92 90 90 88 87 80 76 77 79 81 84 86 96 96 96 90 86 82 73 61 52 41 39 41 50
62 60 60 61 63 64 63 62 57 54 58 63 72 81 84 83 84 82 84 85 81 82 78 80 76 78 79 88 89 92 99 93 93 88 85 79 73 56 46 41 36 40 48
64 65 66 67 69 68 66 66 66 56 58 68 69 73 80 81 82 80 79 76 82 80 82 83 87 89 86 87 92 99 102 101 93 91 84 80 66 50 41 36 35 39 42
68 68 71 71 73 69 72 62 65 61 64 69 66 68 73 74 75 71 72 74 78 84 88 90 84 84 87 92 96 103 106 97 93 88 86 71 57 43 34 31 33 35 36
71 73 74 77 76 73 59 59 63 62 65 67 65 68 72 74 71 73 78 83 85 87 90 87 83 87 91 95 101 101 90 90 91 90 77 63 49 35 28 27 30 30 30
75 77 77 77 78 67 64 61 65 66 67 66 68 70 74 77 77 83 88 88 89 86 87 90 91 95 96 96 87 89 92 95 91 80 65 54 41 30 24 23 25 26 26
81 79 79 79 73 67 60 62 62 67 64 64 71 74 79 84 86 91 95 93 92 92 95 96 98 95 85 86 92 95 96 95 82 69 60 47 33 26 20 22 22 22 25
81 80 80 78 76 73 68 63 66 69 71 75 74 80 84 85 90 98 93 91 91 92 94 98 94 91 91 93 96 97 97 84 70 63 52 38 29 26 20 20 20 18 21
81 78 75 76 75 74 72 70 70 72 74 79 82 84 82 88 87 83 84 87 88 93 97 93 92 97 97 100 100 90 79 71 62 55 44 34 27 25 19 20 19 19 19
78 81 78 74 77 78 75 74 80 81 79 81 85 85 84 85 85 85 86 88 95 94 91 97 100 104 102 97 81 72 66 62 53 48 42 31 25 23 21 21 22 20 21
79 78 77 77 79 84 82 80 83 84 85 84 80 78 80 86 86 87 90 95 93 93 97 102 103 93 76 71 68 62 57 52 47 43 38 28 24 23 24 23 23 20 20
79 81 81 82 84 89 89 89 90 91 93 90 82 81 85 84 89 93 94 91 95 101 101 92 76 73 69 63 60 56 51 46 41 38 32 25 24 26 28 25 24 20 22
81 83 86 89 91 93 95 98 95 86 77 79 79 82 86 89 87 89 94 98 99 96 80 74 69 65 63 57 53 50 45 40 36 34 30 24 25 27 31 27 25 21 23
87 89 88 87 94 88 85 80 80 79 75 78 80 82 86 91 93 96 97 96 85 73 70 65 60 57 54 49 47 42 38 34 31 29 26 24 26 28 33 30 27 25 24
88 89 92 91 84 82 79 76 77 79 81 85 88 91 93 94 97 94 82 75 67 61 56 50 47 44 42 40 37 35 31 28 26 24 23 24 26 29 36 34 32 32 25
79 78 76 78 78 79 81 84 86 89 91 93 95 95 95 89 78 73 67 58 52 48 44 40 38 37 34 32 30 28 25 24 23 22 21 22 25 30 36 38 38 35 33
78 79 80 82 84 86 89 91 93 95 94 91 87 80 73 69 62 57 51 47 45 42 38 36 35 33 31 29 28 26 25 23 21 21 20 21 25 31 35 43 42 39 40
83 85 88 89 92 94 94 90 85 78 72 68 66 64 59 54 50 47 44 43 42 41 38 36 34 33 31 28 27 27 26 24 21 20 19 20 23 27 34 45 44 44 50
88 90 92 92 87 79 71 66 63 60 58 54 53 51 49 46 44 44 43 42 40 39 38 37 36 34 33 30 28 27 27 25 22 20 19 19 20 25 33 38 49 49 51

GFSGL_250_spd_021.txt.gz
Wind_Speed
36 34 35 35 34 35 38 37 43 46 49 46 39 42 42 42 45 47 47 49 51 52 54 54 56 52 53 57 55 55 48 51 54 50 45 54 54 45 52 48 50 53 56
39 39 39 38 39 39 40 42 44 48 51 47 44 42 42 41 44 46 50 53 57 54 57 55 52 51 61 58 62 56 50 56 67 63 62 57 53 50 50 50 58 61 66
43 43 44 42 43 42 43 46 47 51 53 49 45 46 45 46 47 51 54 57 61 62 66 65 54 51 60 69 70 58 63 59 65 66 57 64 62 59 59 63 64 70 77
49 50 47 47 47 46 48 48 51 52 52 50 48 45 48 50 52 55 59 62 64 68 64 63 68 74 82 78 66 73 84 79 74 69 64 62 60 61 68 75 75 77 88
54 53 52 53 51 52 53 54 54 54 54 53 50 51 52 52 56 58 61 62 64 69 75 79 82 84 75 72 72 79 74 76 69 71 65 65 71 75 81 81 88 89 78
57 55 56 57 57 57 58 59 57 56 55 53 52 54 56 58 58 62 65 68 69 70 72 77 76 72 75 76 80 73 70 72 79 72 74 76 81 87 90 90 94 80 73
58 60 61 62 62 62 63 62 60 60 56 54 53 53 58 60 64 66 71 72 71 68 70 77 80 78 75 74 74 74 74 77 76 78 81 85 89 94 89 93 88 78 74
65 65 66 67 66 66 67 65 65 64 61 59 54 53 57 60 65 68 75 75 70 67 69 72 72 73 69 72 71 75 74 78 81 84 88 93 92 92 92 93 86 76 78
71 71 70 71 71 70 71 70 69 67 67 63 58 61 64 66 67 73 75 71 66 68 68 70 68 68 74 79 75 80 85 90 88 89 82 87 89 85 87 82 79 77 76
74 75 75 74 73 73 73 72 69 70 68 65 68 70 71 74 75 76 71 69 70 73 75 76 73 76 81 85 87 89 93 96 94 92 86 80 84 84 82 80 80 76 68
77 78 79 78 75 74 74 73 71 72 72 72 72 74 75 77 77 69 69 67 72 76 74 73 77 86 87 85 87 86 86 84 83 83 82 83 82 77 77 78 75 65 53
81 81 80 81 77 75 72 71 72 71 72 72 73 77 80 77 75 75 75 76 81 84 86 90 85 88 88 86 86 85 81 79 79 79 78 78 78 80 79 75 62 50 46
84 83 83 81 76 76 74 72 71 71 73 76 79 79 81 77 76 78 79 82 87 90 93 92 91 87 84 79 75 73 73 74 74 75 77 79 79 77 73 61 54 48 43
86 85 82 79 75 75 76 75 75 75 78 81 83 82 80 78 78 84 87 90 94 97 96 93 89 84 78 74 71 72 72 74 77 78 80 79 74 68 58 53 44 39 39
84 83 81 80 78 77 78 79 77 79 82 83 83 84 85 85 85 87 91 94 95 93 87 83 80 76 73 74 75 76 76 80 82 81 78 71 61 56 50 45 42 38 36
84 83 82 81 81 80 80 80 82 83 86 86 87 86 87 87 88 90 93 90 85 83 80 77 77 77 78 78 78 80 81 83 81 74 66 60 56 50 46 40 36 33 33
84 83 81 82 82 81 82 81 80 82 84 86 86 88 87 90 93 92 90 88 83 81 82 83 83 82 82 83 84 86 83 74 66 61 59 51 46 41 39 36 33 30 29
81 80 80 80 81 80 77 76 80 81 83 85 88 87 89 93 91 88 86 84 84 85 85 86 85 87 89 88 85 76 66 61 57 53 50 44 40 37 35 33 28 27 27
80 79 82 81 79 78 81 79 81 81 85 87 87 88 91 89 88 87 85 88 87 88 89 91 91 87 82 75 66 61 57 51 48 47 43 39 36 33 31 28 25 25 25
82 79 74 72 76 78 78 81 85 86 82 81 87 89 90 87 87 89 90 89 89 91 88 79 73 68 64 61 56 52 48 44 43 41 38 34 32 30 28 25 23 24 24
75 72 72 75 78 78 80 82 82 83 84 85 84 85 90 88 89 90 90 89 90 80 70 66 62 57 55 53 48 45 42 40 38 38 35 32 29 28 26 24 23 24 25
73 73 76 77 78 80 81 83 82 84 85 84 85 87 88 90 91 90 91 89 76 66 59 58 55 52 49 46 43 41 39 39 36 34 32 30 29 27 26 23 22 24 27
73 77 76 78 80 83 82 81 83 85 85 84 85 87 91 92 91 89 89 73 64 59 56 51 48 46 43 41 40 37 36 34 34 31 28 27 26 25 24 22 22 24 28
81 85 84 84 82 82 81 83 84 84 86 84 87 89 93 93 90 88 70 62 56 50 46 43 42 41 40 37 35 33 31 30 29 28 26 26 24 23 20 20 22 24 30
79 81 82 82 87 88 85 85 84 85 86 88 91 93 95 92 87 68 60 51 45 43 42 40 39 38 36 36 35 32 29 27 27 26 25 25 23 21 19 18 20 23 30
90 95 95 88 87 87 87 86 85 86 88 92 92 96 91 85 65 54 50 48 44 41 40 38 38 37 35 33 33 33 31 28 26 24 24 23 21 20 19 18 18 22 29

GFSGL_250_spd_024.txt.gz
Wind_Speed
33 33 32 33 35 34 35 36 38 40 42 46 48 51 51 51 48 46 45 48 50 48 51 55 55 57 59 57 51 47 54 58 66 53 41 45 52 60 52 44 39 42 43
36 36 37 38 40 39 38 40 41 44 45 47 50 54 55 54 53 50 51 51 53 54 55 56 54 60 58 59 62 70 67 61 55 52 49 51 62 59 54 52 45 48 51
40 40 42 43 43 43 42 45 47 46 49 51 54 56 58 57 54 51 53 54 55 55 59 58 60 59 60 60 64 67 66 59 58 58 59 60 63 63 58 58 56 58 60
44 46 48 47 48 48 47 49 50 50 51 54 57 60 59 58 56 54 54 54 57 57 62 64 63 65 63 61 60 56 59 60 56 59 63 66 68 63 64 64 64 66 66
49 51 53 51 51 53 52 53 53 53 55 57 60 62 60 58 56 55 52 54 60 62 66 67 66 66 62 60 58 60 61 67 70 68 67 65 65 66 69 71 70 67 68
53 57 57 56 57 58 57 56 57 58 59 60 63 63 60 58 58 55 53 57 61 64 66 68 64 65 62 63 59 61 62 63 65 69 71 71 76 78 77 80 78 74 70
59 63 61 60 63 63 62 60 61 61 63 65 67 66 62 60 60 59 58 59 64 67 68 62 50 61 63 63 63 67 71 73 73 74 76 85 87 84 81 74 71 72 75
65 68 65 64 66 67 66 65 65 66 68 69 70 70 69 64 61 61 62 65 70 70 71 68 63 62 61 66 65 68 72 79 81 87 84 87 86 84 81 74 73 74 77
71 72 69 67 68 69 69 70 71 72 73 73 73 72 72 68 65 68 70 71 72 76 71 67 72 67 67 72 82 85 85 88 89 83 82 82 80 78 75 71 72 69 70
74 76 73 72 72 73 73 74 76 77 77 76 76 75 73 72 71 74 75 73 77 77 76 71 70 75 76 83 87 88 89 91 85 83 78 74 70 68 70 69 69 69 72
78 79 78 78 78 78 78 78 80 82 81 79 77 74 75 75 75 78 79 78 78 80 83 77 76 77 83 86 90 89 84 82 79 76 71 68 68 69 70 72 77 79 78
81 81 82 81 82 83 81 82 83 85 83 81 79 77 75 77 78 80 77 82 82 83 80 81 78 84 88 91 88 86 83 76 73 74 73 74 74 76 78 80 80 79 77
85 85 84 85 84 86 84 85 86 84 81 78 78 78 79 80 78 80 85 85 84 85 83 83 85 89 89 87 84 80 80 80 81 81 78 79 80 81 82 82 80 73 66
89 88 88 87 89 88 87 86 84 82 79 76 78 80 79 78 81 84 87 89 88 85 85 87 91 90 87 85 86 87 86 84 84 84 82 82 81 81 77 71 64 58 54
87 86 86 86 88 88 85 85 82 80 79 81 77 78 80 81 84 86 88 90 88 85 88 91 92 88 85 87 89 88 87 87 88 85 82 80 75 69 63 60 56 52 47
85 84 84 82 83 84 83 82 80 81 81 77 80 79 81 81 82 87 89 87 87 88 90 91 88 87 88 90 90 89 89 87 85 82 75 68 63 60 57 53 49 45 42
83 83 82 82 82 84 83 83 81 80 78 81 77 79 78 80 86 86 83 86 84 88 91 90 89 90 93 91 91 88 79 71 66 63 61 58 55 50 49 47 43 40 38
80 80 80 80 79 77 78 78 77 75 80 78 76 76 80 82 85 85 86 85 87 88 88 88 91 94 91 91 83 72 67 62 57 55 51 48 46 45 44 41 37 36 34
72 71 71 70 69 68 69 77 76 77 80 77 76 81 83 86 82 85 84 85 86 87 88 89 97 95 89 76 68 63 59 56 53 49 46 43 41 41 38 34 33 31 30
61 64 64 62 66 72 70 76 81 79 77 76 80 84 86 86 83 85 84 84 86 88 90 94 93 88 74 66 62 57 53 50 47 43 40 38 38 37 34 30 28 26 26
57 63 63 60 70 73 74 78 82 84 78 77 81 87 90 87 85 87 86 85 88 89 91 93 88 76 66 60 54 48 45 43 43 40 38 36 34 33 31 28 26 24 22
45 56 60 64 72 80 82 79 80 79 82 88 89 93 93 93 87 86 86 86 89 91 95 91 78 66 56 51 48 45 44 43 42 40 36 34 32 30 29 27 25 22 20
64 71 72 75 74 77 77 83 86 84 83 89 90 90 91 92 86 81 84 86 89 91 88 82 66 56 51 47 46 43 43 42 38 37 35 32 30 29 27 27 24 22 19
61 68 77 77 81 83 85 89 91 93 92 100 104 97 89 79 79 80 83 88 87 87 83 68 57 52 48 45 44 44 43 42 39 35 32 30 28 27 26 26 24 22 19
73 78 82 83 86 87 87 87 89 92 100 103 88 78 77 76 79 83 83 84 86 81 70 58 53 48 44 43 44 41 40 39 37 35 29 26 26 25 25 24 23 22 19
78 81 85 88 86 90 95 93 93 99 92 81 78 74 74 75 81 83 86 83 78 71 58 51 47 44 44 41 39 39 37 36 36 33 30 25 24 23 23 22 21 21 20

GFSGL_250_spd_030.txt.gz
Wind_Speed
28 28 30 31 32 31 31 31 31 33 36 38 37 38 39 42 45 49 49 49 49 50 52 52 50 49 45 47 48 49 46 43 41 41 37 37 35 37 34 33 31 31 35
36 33 33 34 36 36 36 37 36 37 40 40 40 41 42 44 47 50 54 55 56 56 55 56 55 53 53 54 54 51 50 48 50 48 47 43 38 35 35 41 43 44 45
39 38 37 37 39 40 41 41 41 43 46 45 45 46 47 49 50 51 53 58 62 63 61 60 59 59 61 59 58 52 52 53 54 53 54 49 44 43 43 42 46 53 54
42 43 42 41 42 44 44 45 46 48 51 52 51 51 52 52 53 55 56 58 61 64 65 61 61 65 64 65 63 61 57 57 57 56 54 50 49 48 45 49 57 57 60
45 48 46 45 47 49 50 49 50 52 55 58 56 57 58 56 57 59 59 62 63 65 67 67 68 68 67 66 65 64 58 61 59 62 61 54 54 54 53 64 66 66 70
50 51 52 51 53 55 55 54 55 56 57 61 60 60 61 62 64 63 63 65 65 67 69 72 71 70 68 69 67 65 61 63 66 68 67 60 62 62 66 68 71 66 67
56 55 58 58 59 61 62 60 59 61 62 65 65 64 65 69 70 70 69 68 69 69 72 73 73 71 70 70 63 62 64 66 70 70 69 68 71 70 70 73 71 68 66
64 62 62 64 66 67 66 65 64 66 65 70 70 69 70 75 76 75 75 72 71 73 74 77 74 71 70 69 59 65 67 68 67 73 71 72 74 74 75 70 70 69 73
70 68 67 69 69 72 71 70 70 70 70 74 74 73 74 79 81 76 75 77 77 78 74 73 72 76 74 66 67 67 74 76 77 78 77 78 78 78 77 76 76 80 82
72 73 75 76 75 75 77 76 76 75 75 76 78 79 80 84 83 79 79 79 81 76 70 73 74 76 75 72 75 70 78 79 84 87 82 80 82 84 83 85 87 90 90
80 80 81 77 79 80 80 80 82 80 78 80 84 86 82 80 75 77 76 81 76 72 74 75 76 73 70 71 68 72 82 87 89 92 92 87 86 87 87 90 91 87 80
87 85 86 85 84 85 84 84 86 84 83 84 85 80 79 78 75 77 83 80 78 74 74 74 75 74 74 72 80 84 86 91 92 98 94 87 85 87 91 92 87 74 66
89 90 91 90 86 87 88 86 85 82 84 85 74 67 78 75 80 83 82 77 76 78 77 76 77 74 73 79 84 87 92 99 102 107 91 83 84 88 89 84 71 64 60
81 87 90 89 87 84 89 87 82 81 72 73 65 78 74 78 80 80 73 76 79 81 81 75 75 76 75 83 87 91 98 103 109 94 85 86 87 85 78 68 62 57 54
68 74 76 79 81 79 77 75 69 51 56 80 76 64 76 78 75 76 78 80 80 78 66 69 74 76 81 83 89 95 102 108 100 88 90 90 86 80 70 63 58 54 50
52 53 59 51 55 63 60 55 32 42 72 94 98 84 81 81 77 79 77 72 71 67 71 72 73 78 86 91 94 98 105 110 109 102 95 89 82 71 65 60 57 54 50
60 50 33 28 53 51 51 39 41 76 86 86 90 94 89 84 79 78 73 69 72 72 69 70 75 84 86 91 97 103 110 112 115 97 92 84 74 67 62 58 55 51 47
47 28 52 52 73 74 66 48 68 71 84 97 94 93 90 86 82 76 77 73 75 67 70 73 78 85 89 94 101 106 111 115 111 92 84 76 67 61 59 56 49 45 41
30 41 54 62 72 79 81 73 71 79 80 86 88 88 81 83 79 71 72 75 67 67 76 79 87 90 93 98 106 107 110 113 95 85 78 67 61 56 51 49 44 41 38
43 54 66 68 67 70 71 71 78 80 80 87 83 81 81 64 66 68 70 70 66 66 75 86 86 91 97 101 102 105 115 96 88 79 70 61 57 52 47 45 41 38 35
59 65 64 64 59 59 59 66 70 73 77 83 78 79 65 65 68 62 68 70 72 79 84 84 89 94 98 102 103 107 112 89 80 74 64 57 53 49 47 45 40 36 32
60 57 57 53 53 53 57 67 67 71 76 78 80 71 70 67 65 66 63 71 76 80 84 88 92 95 96 97 99 108 92 81 75 69 60 55 50 48 46 43 40 35 31
55 38 33 36 37 38 48 54 67 71 74 71 67 67 60 64 70 70 73 79 84 85 87 92 97 98 97 99 107 95 81 76 72 64 55 51 49 48 46 43 40 35 30
48 36 33 42 41 41 44 46 56 63 66 56 60 67 62 67 73 78 80 84 88 91 92 94 96 96 97 101 100 84 76 72 69 57 51 46 46 46 45 42 39 34 29
51 46 38 49 54 55 52 53 56 55 56 59 68 71 73 74 79 82 85 89 91 92 94 97 98 100 100 107 92 81 73 68 63 53 47 43 43 42 42 41 37 33 29
59 54 55 54 54 55 59 57 59 63 66 70 71 74 79 82 83 85 91 97 98 96 97 96 97 103 103 90 80 73 69 66 59 49 43 40 41 40 40 39 36 32 29

GFSGL_250_spd_033.txt.gz
Wind_Speed
28 28 28 30 30 28 29 29 28 31 32 32 33 34 35 37 40 43 46 48 49 51 53 53 53 51 50 51 53 53 54 55 54 49 46 45 42 42 39 37 31 30 35
34 32 32 33 34 35 34 34 35 35 35 36 36 37 37 39 44 47 50 52 53 56 59 60 60 59 55 56 60 61 59 58 63 55 48 48 46 45 44 40 39 37 42
40 37 35 36 38 38 38 39 39 39 40 40 41 42 42 43 46 49 53 55 57 59 61 64 65 61 57 63 64 62 62 65 65 56 57 53 54 52 52 53 48 46 49
40 41 39 39 40 42 42 45 45 43 44 44 47 48 47 46 48 53 56 58 61 64 65 69 69 59 60 67 68 66 65 66 64 64 60 59 56 53 53 60 58 56 57
45 45 45 43 45 46 47 49 50 49 48 48 51 52 54 53 53 57 61 62 64 67 69 72 62 64 65 71 70 69 67 66 64 60 56 59 57 56 59 63 61 60 64
51 50 50 48 50 51 52 53 55 56 55 53 55 56 59 59 59 63 67 68 68 70 73 68 65 64 66 73 72 69 65 69 66 69 68 57 55 70 70 68 65 65 66
54 56 56 56 59 60 59 59 60 59 60 59 60 61 63 64 65 67 73 75 75 76 76 70 62 64 71 68 74 71 69 74 71 70 63 61 66 70 79 79 79 68 65
66 67 64 63 65 68 67 66 65 64 63 64 65 65 65 66 70 73 78 80 81 73 69 62 64 67 69 71 68 68 73 73 73 70 72 73 77 79 90 85 80 67 65
71 73 73 68 71 72 71 70 70 69 67 68 67 68 69 71 73 76 80 81 73 68 60 62 69 77 74 72 73 77 79 77 75 75 72 76 85 91 94 92 100 89 81
79 79 81 77 75 73 74 74 74 76 75 74 74 74 75 76 79 81 77 73 61 58 58 65 71 79 74 74 79 82 84 81 78 75 79 84 87 95 104 105 100 95 87
86 86 88 85 82 78 79 79 78 79 81 80 79 77 78 80 83 81 75 58 58 61 63 69 77 81 75 78 85 90 92 86 78 78 83 90 95 103 109 112 104 90 82
84 89 90 87 86 87 85 85 84 83 84 84 83 83 84 83 84 78 63 55 65 65 68 70 79 76 79 84 91 95 93 85 78 83 91 95 99 108 110 119 96 85 79
71 73 76 79 82 86 87 87 89 85 85 83 80 78 73 75 68 57 46 66 72 71 79 77 80 76 79 80 84 95 95 88 83 88 95 102 108 111 113 122 92 81 71
55 53 54 49 38 44 55 52 51 47 42 44 51 52 56 55 54 55 48 65 72 83 88 83 83 80 79 81 85 96 98 88 86 93 97 105 109 113 114 105 83 73 64
51 45 34 20 28 35 35 25 20 29 44 41 29 31 48 71 61 75 75 72 76 81 86 91 87 85 83 90 92 97 103 86 88 92 99 108 111 110 111 90 78 66 61
38 40 30 30 28 36 32 37 34 31 41 37 28 31 33 55 73 79 90 93 82 76 83 93 89 90 88 91 93 100 95 85 92 96 102 107 114 119 103 85 73 64 60
28 37 43 24 20 38 47 49 36 79 68 36 35 37 61 57 65 71 76 87 86 85 88 90 92 92 91 92 96 104 94 90 93 99 105 113 115 112 97 84 71 62 58
44 35 23 26 22 55 53 51 36 32 77 65 61 62 78 75 74 75 79 83 84 82 90 95 91 87 86 96 105 100 93 92 98 102 108 111 113 112 91 80 69 62 55
45 39 25 29 48 40 55 58 64 66 71 71 70 80 81 80 84 90 95 97 100 100 99 96 94 100 98 106 100 96 94 98 102 105 110 115 117 101 87 75 65 57 51
51 45 33 43 55 63 68 68 72 78 81 74 87 90 92 85 85 94 101 104 104 104 105 103 103 102 104 102 103 97 97 99 102 106 113 110 104 93 80 69 59 54 47
52 45 41 51 62 61 63 68 70 76 84 93 83 83 88 93 93 101 103 113 114 111 104 107 109 107 106 106 98 94 99 102 106 109 106 102 100 84 74 64 56 52 48
57 59 54 60 59 65 67 77 86 85 80 78 81 88 94 97 103 107 112 116 112 111 108 106 106 100 103 94 94 97 102 102 106 108 103 96 89 74 69 60 54 50 48
68 68 62 59 64 65 74 83 82 78 84 90 93 95 98 96 95 95 99 102 101 100 98 95 92 89 87 91 96 98 99 96 95 93 91 88 77 70 64 56 52 49 46
70 77 76 75 80 83 80 84 86 90 93 94 92 95 91 86 87 88 91 92 95 96 94 86 83 82 85 93 96 95 88 93 93 88 88 81 72 68 60 52 49 47 44
45 49 54 59 68 73 72 69 71 72 73 79 81 80 74 68 69 73 74 73 73 76 77 81 84 91 90 83 92 91 94 100 90 87 84 73 68 65 57 49 47 44 42
49 48 51 49 50 54 51 56 63 68 78 74 74 79 80 77 65 65 70 73 77 79 82 87 90 90 90 89 92 93 98 96 89 87 79 69 64 62 55 46 44 42 39

GFSGL_250_spd_036.txt.gz
Wind_Speed
26 28 27 26 26 26 24 25 28 29 30 31 32 32 33 33 33 37 40 42 45 48 51 55 57 58 59 61 57 52 50 57 62 59 62 59 57 44 46 40 38 38 43
33 34 33 33 32 30 28 29 31 31 34 35 36 37 37 38 38 40 43 45 48 52 55 59 61 62 65 62 53 53 53 58 60 55 63 63 58 52 51 49 46 44 49
43 42 40 38 37 36 34 33 33 33 36 37 37 39 41 42 42 44 47 49 51 53 57 61 63 66 68 61 53 52 55 63 62 62 63 64 62 57 50 45 44 44 54
46 51 46 41 39 40 38 38 38 37 39 40 40 42 44 46 47 48 50 52 55 57 60 62 64 68 59 60 54 52 57 60 63 63 63 64 63 55 49 46 48 53 54
44 44 46 45 45 44 45 44 44 43 42 45 45 47 49 52 51 52 53 57 59 62 64 65 66 63 53 57 56 54 59 64 61 62 60 70 64 58 50 54 60 63 71
51 52 51 52 51 51 52 49 47 49 48 48 52 54 55 58 58 56 56 60 65 67 68 68 68 56 62 58 54 54 60 64 62 61 67 75 68 66 61 69 69 75 81
60 59 58 57 56 58 56 55 55 55 55 57 58 59 60 61 63 61 59 61 69 72 72 71 67 64 69 57 54 57 62 64 68 68 72 78 75 72 74 78 78 81 84
68 65 65 65 64 63 61 62 64 62 61 61 64 65 66 67 67 67 65 66 71 75 77 76 62 70 65 56 57 60 64 67 69 70 76 76 75 82 81 82 82 87 93
75 74 73 73 70 67 67 69 68 68 66 67 67 69 72 73 74 75 74 71 71 75 76 66 64 66 58 58 63 65 69 75 76 80 80 78 80 85 87 90 89 92 97
70 77 80 77 76 74 74 75 74 71 72 74 75 75 78 79 79 80 78 76 75 72 59 63 69 55 60 60 63 64 72 81 81 80 81 87 86 86 96 98 104 102 108
66 66 68 73 76 79 83 81 80 78 79 77 77 80 83 86 83 79 74 73 64 49 55 63 59 58 61 62 64 64 73 77 84 88 91 95 95 91 101 106 108 117 118
70 69 68 69 67 68 70 69 67 72 73 67 60 54 51 49 46 53 56 52 45 45 51 56 61 57 58 61 62 70 77 84 97 100 97 105 100 106 112 112 119 130 124
70 70 67 68 66 64 61 60 53 44 39 41 20 17 21 24 31 38 43 54 66 58 55 72 65 67 63 65 71 78 86 94 100 101 103 104 117 116 125 114 125 131 114
66 66 58 59 63 58 53 49 36 22 16 18 5 11 14 24 29 38 29 33 96 61 64 71 79 72 71 76 85 84 90 95 97 104 111 117 121 117 123 121 125 134 114
58 60 54 53 57 58 54 41 30 23 9 14 15 13 9 16 21 18 18 31 49 51 59 76 76 79 87 92 93 91 96 98 100 110 120 119 124 121 122 118 131 129 113
63 56 54 54 52 51 51 47 40 29 22 17 10 21 35 38 21 33 43 54 59 54 62 63 71 73 82 81 85 91 98 105 112 118 123 118 120 118 111 122 124 114 111
68 56 55 51 57 53 49 58 57 42 34 27 27 17 30 26 61 66 62 71 73 68 77 87 84 91 91 83 91 98 105 106 112 113 124 114 111 112 119 113 113 113 107
66 60 51 55 58 53 57 65 63 62 59 50 46 32 42 44 32 60 78 84 85 88 88 91 86 95 97 98 102 103 105 107 114 114 120 114 107 110 107 110 109 108 104
56 61 57 56 62 57 60 66 62 69 53 61 55 49 32 45 45 55 65 76 80 84 95 90 93 99 101 99 97 100 107 110 109 111 110 109 103 101 101 103 107 101 99
60 65 64 59 60 62 65 59 70 58 48 51 53 48 57 57 55 62 71 74 74 79 82 91 91 98 95 98 100 104 106 109 110 103 102 106 101 99 98 103 101 99 94
62 62 63 64 64 60 61 56 56 53 53 57 58 60 64 66 67 72 79 81 83 85 84 89 95 100 104 106 107 111 114 113 108 100 100 100 99 98 98 100 96 94 89
64 60 68 69 69 57 61 61 62 64 65 61 61 68 69 72 75 70 71 77 82 84 90 90 95 98 99 103 109 107 104 99 99 101 92 95 98 97 99 93 94 91 83
66 67 69 65 66 68 70 71 73 72 69 67 69 64 68 74 77 79 81 82 85 84 87 89 91 93 97 92 94 97 95 94 96 91 88 92 96 96 95 93 88 86 77
65 63 60 60 66 67 67 70 72 75 74 71 69 74 75 74 80 88 90 90 94 90 87 82 79 78 80 81 82 82 84 83 83 85 89 95 96 90 90 88 84 81 72
64 60 58 55 58 62 62 66 73 74 75 77 76 78 76 74 75 82 88 91 86 80 80 83 77 76 76 77 82 78 80 80 83 87 95 97 95 91 87 82 79 77 70
61 62 62 60 59 57 58 64 67 73 80 87 87 88 90 91 92 85 78 77 82 80 78 77 76 80 76 75 78 80 85 86 90 95 97 97 91 84 82 80 78 76 67